Location: Kaikalui
(16.5250°N, 81.1500°E)
Time: 22:15:24
(UTC+00:00)

Chandra Rocket (1) - Pass Details

Date: 14 April 2026
Orbit: 242 x 10400 km, 28.5° (Epoch: 8 May)

Event Time Altitude Azimuth Distance (km) Brightness Sun altitude
Exits shadow 22:27:31 24° 360° (N) 1,225 3.7 -27.0°
Maximum altitude 22:28:43 28° 30° (NNE) 1,305 4.1 -26.7°
Drops below altitude 10° 22:35:23 10° 87° (E) 3,758 7.0 -25.2°
Sets 22:41:54 0° 96° (E) 6,348 8.3 -23.7°
